Location: Gwatt
(46.7204°N, 7.6223°E)
Time: 01:38:18
(UTC+00:00)

Envisat - Pass Details

Date: 25 November 2020
Orbit: 764 x 766 km, 98.1° (Epoch: 19 January)

Event Time Altitude Azimuth Distance (km) Brightness Sun altitude
Rises 16:57:51 0° 182° (S) 3,219 6.5 -12.0°
Reaches altitude 10° 17:00:14 10° 188° (S) 2,297 5.8 -12.4°
Maximum altitude 17:05:05 46° 261° (W) 1,024 4.2 -13.2°
Drops below altitude 10° 17:10:00 10° 335° (NNW) 2,315 5.6 -14.0°
Sets 17:12:25 0° 342° (NNW) 3,246 6.3 -14.4°
